カタログに戻る

DELTA 1 DEB

運用中LEO
NORAD 10626·DEBRIS·🇺🇸 United States

打ち上げ Jul 14, 1977 から Cape Canaveral Space Force Station

Loading…

次のパス (今後24時間)

TLE

最新Source: Space-Track

元期: Sep 14, 2026, 14:18 UTC

1 10626U 77065EV  26257.59617835  .00001624  00000-0  36870-3 0  9996
2 10626  29.1791  11.0683 0653003 285.7375  67.2143 13.68659158394875

AllMySatでDELTA 1 DEBをリアルタイム追跡

Download on the App Store